(282729) = 2006 DR78 = 2006 BD273

Discovered at Kitt Peak on 2006-02-24 by Spacewatch.

Orbit

Orbit type: Main Belt

Note: WebGL enabled browser required.

epoch2023-02-25.0
epoch JD2460000.5
perihelion date2019-03-28.28736
perihelion JD2458570.78736
argument of perihelion (°)39.91191
ascending node (°)128.71575
inclination (°)2.42711
eccentricity0.0377542
perihelion distance (AU)2.5566270
Tisserand w.r.t. Jupiter3.4
ΔV w.r.t. Earth (km/sec)10.0
semimajor axis (AU)2.6569376
mean anomaly (°)325.37229
mean daily motion (°/day)0.22757880
aphelion distance (AU)2.757
period (years)4.33
P-vector [x]-0.97991739
P-vector [y]0.17043504
P-vector [z]0.10350753
Q-vector [x]-0.19664712
Q-vector [y]-0.91199464
Q-vector [z]-0.35999401
absolute magnitude17.44
phase slope0.15
uncertainty0
referenceMPO 730250
observations used162
oppositions10
arc length (days)6193
first opposition used2006
last opposition used2023
residual rms (arc-secs)0.77
perturbers coarse indicatorM-v
perturbers precise indicator003Ek
first observation date used2006-01-30.0
last observation date used2023-01-14.0
computer nameMPCLINUX
Minimum Orbit Intersection Distances (in AU)
for orbit epoch: 2460000.5, reference: E2023-A67
Mercury2.14462
Venus1.83761
Earth1.56334
Mars0.89223
Jupiter2.20134
Saturn6.41385
Uranus15.8852
Neptune27.1114

Observations

166 total observations over interval: 2006 01 30.52603 – 2023 01 14.418598
These data are available for download (format description).

Date (UT) J2000 RA J2000 Dec Magn Location Ref
2006 01 30.52603 11 20 48.29 +05 56 49.7   291 – LPL/Spacewatch II MPC 57081
2006 01 30.53059 11 20 48.21 +05 56 50.6   291 – LPL/Spacewatch II MPC 57081
2006 01 30.53481 11 20 48.09 +05 56 51.5   291 – LPL/Spacewatch II MPC 57081
2006 01 31.45489 11 20 28.99 +06 00 11.0 21.5 V 691 – Steward Observatory, Kitt Peak-Spacewatch MPS 169193
2006 01 31.47228 11 20 28.58 +06 00 15.1 21.0 V 691 – Steward Observatory, Kitt Peak-Spacewatch MPS 169193
2006 01 31.48966 11 20 28.15 +06 00 19.0 21.2 V 691 – Steward Observatory, Kitt Peak-Spacewatch MPS 169193
2006 02 24.23882 11 05 47.35 +08 03 48.2 20.7 V 691 – Steward Observatory, Kitt Peak-Spacewatch MPS 166251
2006 02 24.25621 11 05 46.47 +08 03 54.6 20.6 V 691 – Steward Observatory, Kitt Peak-Spacewatch MPS 166251
2006 02 24.27359 11 05 45.59 +08 04 01.3 20.7 V 691 – Steward Observatory, Kitt Peak-Spacewatch MPS 166251
2006 03 02.20153 11 00 48.63 +08 40 57.8 20.8 V 691 – Steward Observatory, Kitt Peak-Spacewatch MPS 166251
2006 03 02.21886 11 00 47.71 +08 41 04.6 20.5 V 691 – Steward Observatory, Kitt Peak-Spacewatch MPS 166251
2006 03 02.23613 11 00 46.83 +08 41 11.2 21.0 V 691 – Steward Observatory, Kitt Peak-Spacewatch MPS 166251
2006 03 29.11999 10 40 23.80 +11 00 15.1 20.8 V 691 – Steward Observatory, Kitt Peak-Spacewatch MPS 169193
2006 03 29.13874 10 40 23.15 +11 00 19.1 21.1 V 691 – Steward Observatory, Kitt Peak-Spacewatch MPS 169193
2006 03 29.15751 10 40 22.49 +11 00 23.2 21.1 V 691 – Steward Observatory, Kitt Peak-Spacewatch MPS 169193
2008 10 24.22065 00 59 28.03 +02 29 31.2 21.4 V G96 – Mt. Lemmon Survey MPS 310224
2008 10 24.22828 00 59 27.63 +02 29 29.3 21.3 V G96 – Mt. Lemmon Survey MPS 310224
2008 10 24.23598 00 59 27.31 +02 29 27.4 22.0 V G96 – Mt. Lemmon Survey MPS 310224
2008 10 24.24361 00 59 26.91 +02 29 25.1 21.6 V G96 – Mt. Lemmon Survey MPS 310224
2010 01 06.23395 08 40 22.15 +17 43 21.6 20.7 V 691 – Steward Observatory, Kitt Peak-Spacewatch MPS 310224
2010 01 06.25163 08 40 21.32 +17 43 25.8 20.9 V 691 – Steward Observatory, Kitt Peak-Spacewatch MPS 310224
2010 01 06.26929 08 40 20.52 +17 43 30.1 21.4 V 691 – Steward Observatory, Kitt Peak-Spacewatch MPS 310224
2010 01 06.31059 08 40 18.55 +17 43 39.9 21.5 V 291 – LPL/Spacewatch II MPS 310224
2010 01 06.33471 08 40 17.39 +17 43 44.7 21.1 V 291 – LPL/Spacewatch II MPS 310224
2010 01 06.35891 08 40 16.24 +17 43 50.4 21.5 V 291 – LPL/Spacewatch II MPS 310224
2010 01 06.43634 08 40 12.61 +17 44 07.4 21.1 V 291 – LPL/Spacewatch II MPS 310224
2010 01 06.44029 08 40 12.46 +17 44 08.5 21.1 V 291 – LPL/Spacewatch II MPS 310224
2010 01 06.44434 08 40 12.24 +17 44 09.0 21.1 V 291 – LPL/Spacewatch II MPS 310224
2010 01 06.51737 08 40 08.75 +17 44 25.0 21.5 V 291 – LPL/Spacewatch II MPS 310224
2010 01 06.52253 08 40 08.51 +17 44 26.0 21.0 V 291 – LPL/Spacewatch II MPS 310224
2010 01 06.52633 08 40 08.36 +17 44 27.2 21.5 V 291 – LPL/Spacewatch II MPS 310224
2010 01 08.30329 08 38 46.11 +17 51 11.4 21.2 V 291 – LPL/Spacewatch II MPS 310224
2010 01 08.32420 08 38 45.10 +17 51 16.1 21.1 V 291 – LPL/Spacewatch II MPS 310224
2010 01 08.34633 08 38 43.97 +17 51 21.3 20.8 V 291 – LPL/Spacewatch II MPS 310224
2010 02 09.22100 08 09 45.25 +20 01 40.6 21.4 V G96 – Mt. Lemmon Survey MPS 313283
2010 02 09.22640 08 09 44.96 +20 01 41.1 21.4 V G96 – Mt. Lemmon Survey MPS 313283
2010 02 09.23176 08 09 44.64 +20 01 42.5 21.2 V G96 – Mt. Lemmon Survey MPS 313283
2010 02 09.23710 08 09 44.38 +20 01 44.0 21.2 V G96 – Mt. Lemmon Survey MPS 313283
2010 02 09.25484 08 09 43.45 +20 01 47.4 21.2 V G96 – Mt. Lemmon Survey MPS 313283
2010 02 09.26029 08 09 43.20 +20 01 48.5 21.2 V G96 – Mt. Lemmon Survey MPS 313283
2010 02 09.26569 08 09 42.91 +20 01 49.8 21.2 V G96 – Mt. Lemmon Survey MPS 313283
2010 02 09.27106 08 09 42.62 +20 01 50.8 21.2 V G96 – Mt. Lemmon Survey MPS 313283
2010 02 17.25612 08 03 47.91 +20 27 26.0 21.0 V G96 – Mt. Lemmon Survey MPS 313283
2010 02 17.26207 08 03 47.66 +20 27 26.9 21.3 V G96 – Mt. Lemmon Survey MPS 313283
2010 02 17.26806 08 03 47.44 +20 27 28.0 21.0 V G96 – Mt. Lemmon Survey MPS 313283
2010 02 17.27401 08 03 47.16 +20 27 29.3 21.2 V G96 – Mt. Lemmon Survey MPS 313283
2011 05 28.28961 15 52 14.16 -16 30 35.7 20.4 V G96 – Mt. Lemmon Survey MPS 385353
2011 05 28.29709 15 52 13.72 -16 30 34.7 19.8 V G96 – Mt. Lemmon Survey MPS 385353
2011 05 28.30454 15 52 13.33 -16 30 33.8 20.2 V G96 – Mt. Lemmon Survey MPS 385353
2011 05 28.31201 15 52 12.93 -16 30 32.4 20.5 V G96 – Mt. Lemmon Survey MPS 385353
2011 06 06.38564 15 44 25.207 -16 12 36.89 21.3 w F51 – Pan-STARRS 1, Haleakala MPS 385353
2011 06 06.40014 15 44 24.476 -16 12 35.28 21.1 w F51 – Pan-STARRS 1, Haleakala MPS 385353
2011 06 06.41459 15 44 23.757 -16 12 33.85 21.4 w F51 – Pan-STARRS 1, Haleakala MPS 385353
2011 06 06.42902 15 44 23.047 -16 12 32.22 21.6 w F51 – Pan-STARRS 1, Haleakala MPS 385353
2015 01 23.60208 13 38 15.004 -07 47 45.71 22.0 w F51 – Pan-STARRS 1, Haleakala MPS 569318
2015 01 23.61372 13 38 15.560 -07 47 48.05 22.2 w F51 – Pan-STARRS 1, Haleakala MPS 569318
2015 01 23.62530 13 38 16.087 -07 47 50.00 22.0 w F51 – Pan-STARRS 1, Haleakala MPS 569318
2015 01 23.63691 13 38 16.609 -07 47 52.25 22.2 w F51 – Pan-STARRS 1, Haleakala MPS 569318
2015 03 21.48274 13 45 46.671 -07 09 26.78 21.0 w F51 – Pan-STARRS 1, Haleakala MPS 594890
2015 03 21.49401 13 45 46.254 -07 09 23.48 21.5 w F51 – Pan-STARRS 1, Haleakala MPS 594890
2015 03 21.50529 13 45 45.852 -07 09 20.54 21.6 w F51 – Pan-STARRS 1, Haleakala MPS 594890
2015 03 21.51660 13 45 45.428 -07 09 17.63 21.5 w F51 – Pan-STARRS 1, Haleakala MPS 594890
2015 03 21.77558 13 45 36.37 -07 08 08.2 21.2 R D29 – Purple Mountain Observatory, XuYi Station MPS 594890
2015 03 21.79057 13 45 35.81 -07 08 04.6 20.9 R D29 – Purple Mountain Observatory, XuYi Station MPS 594890
2015 03 22.36861 13 45 15.46 -07 05 26.6   691 – Steward Observatory, Kitt Peak-Spacewatch MPS 594890
2015 03 22.38511 13 45 14.85 -07 05 22.0   691 – Steward Observatory, Kitt Peak-Spacewatch MPS 594890
2015 03 22.41026 13 45 13.89 -07 05 15.3   691 – Steward Observatory, Kitt Peak-Spacewatch MPS 594890
2015 03 22.46833 13 45 11.947 -07 04 58.11 21.4 w F51 – Pan-STARRS 1, Haleakala MPS 594890
2015 03 22.48000 13 45 11.499 -07 04 55.12 21.2 w F51 – Pan-STARRS 1, Haleakala MPS 594890
2015 03 22.49161 13 45 11.059 -07 04 51.89 21.0 w F51 – Pan-STARRS 1, Haleakala MPS 594890
2015 04 11.34769 13 30 17.18 -05 22 00.5 20.4 V G96 – Mt. Lemmon Survey MPS 600410
2015 04 11.35364 13 30 16.86 -05 21 59.1 20.4 V G96 – Mt. Lemmon Survey MPS 600410
2015 04 11.35958 13 30 16.57 -05 21 56.9 20.4 V G96 – Mt. Lemmon Survey MPS 600410
2015 04 11.36554 13 30 16.23 -05 21 54.6 20.4 V G96 – Mt. Lemmon Survey MPS 600410
2015 04 20.38053 13 22 41.919 -04 34 59.74 20.7 w F51 – Pan-STARRS 1, Haleakala MPS 602883
2015 04 20.39407 13 22 41.223 -04 34 55.69 21.0 w F51 – Pan-STARRS 1, Haleakala MPS 602883
2015 04 20.40757 13 22 40.519 -04 34 51.75 21.1 w F51 – Pan-STARRS 1, Haleakala MPS 602883
2015 04 20.42103 13 22 39.830 -04 34 47.69 21.0 w F51 – Pan-STARRS 1, Haleakala MPS 602883
2015 04 21.40356 13 21 51.577 -04 29 59.98 20.5 w F51 – Pan-STARRS 1, Haleakala MPS 602883
2015 04 21.41710 13 21 50.882 -04 29 55.93 20.5 w F51 – Pan-STARRS 1, Haleakala MPS 602883
2015 04 21.43067 13 21 50.181 -04 29 52.14 20.7 w F51 – Pan-STARRS 1, Haleakala MPS 602883
2015 04 21.44425 13 21 49.498 -04 29 48.12 20.8 w F51 – Pan-STARRS 1, Haleakala MPS 602883
2016 07 03.40116 21 17 54.57 -15 27 47.1 21.7 V G96 – Mt. Lemmon Survey MPS 719129
2016 07 03.40753 21 17 54.32 -15 27 48.9 21.8 V G96 – Mt. Lemmon Survey MPS 719129
2016 07 03.41389 21 17 54.15 -15 27 49.0 21.5 V G96 – Mt. Lemmon Survey MPS 719129
2016 08 27.33389 20 36 13.811 -19 06 55.03 21.7 w F51 – Pan-STARRS 1, Haleakala MPS 727239
2016 08 27.34631 20 36 13.324 -19 06 57.45 21.4 w F51 – Pan-STARRS 1, Haleakala MPS 727239
2016 08 27.35873 20 36 12.835 -19 06 59.49 21.1 w F51 – Pan-STARRS 1, Haleakala MPS 727239
2017 10 22.35130 03 39 21.20 +15 46 11.3 22.4 G G96 – Mt. Lemmon Survey MPS 831051
2017 10 22.35658 03 39 20.94 +15 46 10.8 21.4 G G96 – Mt. Lemmon Survey MPS 831051
2017 10 22.36175 03 39 20.72 +15 46 09.5 21.3 G G96 – Mt. Lemmon Survey MPS 831051
2017 10 22.36690 03 39 20.52 +15 46 08.6 21.7 G G96 – Mt. Lemmon Survey MPS 831051
2017 11 10.34010 03 23 39.14 +14 43 55.8   691 – Steward Observatory, Kitt Peak-Spacewatch MPS 835378
